Погода в Кае

Россия / Кировская область     59°57′37″N   52°58′33″E
темп.,
°C
ветер,
м/с
пор.,
м/с
влажн.,
%
обл.,
%
осадки,
мм/ч
давл.,
гПа
погр.,
м
6 марта, сб
сб600:00−20з249833 0.0 100480
03:00−21з359852 0.0 1006110
06:00−20з259892 0.1 1007133
09:00−17з259493 0.1 1008278
12:00−13з3586100 0.1 1008681
15:00−13з3585100 0.1 1008831
18:00−16з2496100 0.1 1009100
21:00−18з239799 0.1 100934
7 марта, вс
вс700:00−21зюз229983 0.0 100920
03:00−20юз229985 0.1 100923
06:00−22юз229890 0.0 100921
09:00−17ююз239152 0.0 1009243
12:00−13ююз238290 0.0 1008591
15:00−12ю238595 0.1 1006722
18:00−16ююв2295100 0.0 100620
21:00−18ююв2397100 0.1 100664
8 марта, пн
пн800:00−19юв239794 0.0 100461
03:00−19вюв369796 0.0 1003137
06:00−18вюв3994100 0.0 1001294
09:00−15в4894100 0.1 1000386
12:00−12в4792100 0.4 999542
15:00−11вюв4692100 0.9 999708
18:00−13в3796100 0.4 999370
21:00−14всв2696100 0.6 999199
9 марта, вт
вт900:00−14св3696100 0.2 999245
03:00−15ссв3896100 0.3 999271
06:00−16ссв499599 0.1 999405
09:00−16с4892100 0.3 1000454
12:00−14с4890100 0.1 1002525
15:00−14с4790100 0.1 1005603
18:00−19ссз3895100 0.0 1008339
21:00−23ссз389692 0.0 1011257
10 марта, ср
ср1000:00−27ссз259771 0.0 101398
03:00−30с239756 0.0 101562
06:00−32ссз239729 0.0 101649
09:00−27с259315 0.0 1017256
12:00−20ссз24840 0.0 1017458
15:00−17сз24820 0.0 1016576
18:00−21з239510 0.0 101638
21:00−23з239821 0.0 101669